FENGYUN 1C DEB

Satellite information

Favourite Embed

Satellite Type and Status

DEBRISIN ORBIT

Key statistics

Satellite FENGYUN 1C DEB at a glance.

Uptime

9555

Days in orbit

Revolutions

≈ 14.7

Per day

Orbit

SSO

Sun Synchronous Orbit

Inclination

98.4

Latest

Satellite identification and parameters

Extended collection of information and parameters for FENGYUN 1C DEB.

Object identification

Identified? True

Debris? True

Object name: FENGYUN 1C DEB

International designator: 1999-025AVN

Object number (NORAD): 30828

Object ID (CCSDS): 30828

Country: PEOPLES REPUBLIC OF CHINA (PRC)

Current information (Y/N): Y

RCS size: SMALL

Orbital parameters

Period: 97.792 minutes

Inclination: 98.3723 deg

SMA: 7031.199 km

Apoapsis: 808.895 km

Periapsis: 497.233 km

RAAN: 288.255 deg

Eccentricy: 0.0221628

Argument of periapsis: 327.495 deg

Mean anomaly: 187.9426 deg

Mean motion: 14.72511471 rev/day

Mean motion (dot): 0.00004029 rev/day2

B* drag term: 0.0004369 1/REarth

Two-line elements (TLE)

Creation date: July 6, 2025, 4:10 a.m.

Reference frame: TEME

Reference center: EARTH

Epoch: July 5, 2025, 6:10 p.m. UTC

TLE line 0: 0 FENGYUN 1C DEB

TLE line 1: 1 30828U 99025AVN 25186.75700611 .00004029 00000-0 43690-3 0 9995

TLE line 2: 2 30828 98.3723 288.2550 0221628 327.4950 187.9426 14.72511471962991

Live tracking on map

Real-time ground track for satellite FENGYUN 1C DEB.

In-orbit conjunctions

A list of the most updated potential collisions computed for object FENGYUN 1C DEB.

Target Orbit TCA Probability of collision Miss distance Type
COSMOS 1862 LEO 2025-04-12 19:23:07 0.000250417 99.0 (m) PAYLOAD
OBJECT D SSO 2025-02-04 11:53:15 0.000113654 890.0 (m) UNKNOWN
COSMOS 2251 DEB LEO 2024-11-14 01:22:25 0.0001409032 971.0 (m) DEBRIS
COSMOS 1275 DEB LEO 2024-11-12 09:20:22 0.0001101144 853.0 (m) DEBRIS

Associated space launch

Chinese polar orbiting meteorological satellite

FENGYUN 1C DEB was lifted into orbit during the mission ‘Long March 4B | Feng Yun 1C’, on board a Long March 4B space rocket.

The launch took place on May 10, 1999, 1:33 a.m. from Launch Complex 7.

For more information about the launch, click the button.

Launch to space Long March 4B | Feng Yun 1C
Long March 4B | Feng Yun 1C

Agency: N/A

Status: Launch Successful

Launch date: May 10, 1999, 1:33 a.m. UTC

Rocket: Long March 4B

Launch pad: Launch Complex 7

Location: Taiyuan Satellite Launch Center, People's Republic of China

...

Latest news about this satellite

There are no fresh news available about this satellite. Check back as we update our databases every day.


Newsletter sign-up

Weekly statistics, charts and insights to help you stay on top of the space industry.